Peotone Weather
Station Historical Data
Daily Summary for May 20, 2017 Units:  English    Metric   Both
« Previous Day
Next Day »
Daily Weekly Monthly Yearly Custom
  High: Low: Average:
Temperature: 71.9 °F 50.2 °F 57.4 °F
Dew Point: 67.2 °F 48.1 °F 55.2 °F
Humidity: 96% 84% 92%
Wind Speed: 18.4mph 0.0mph 5.6mph
Wind Gust: 25.3mph - -
Wind- - East
Pressure: 30.15 in 29.88 in -
Precipitation: 0.33 in    
Historical Graphs
 
 
Tabular Data for May 20, 2017
Time Temperature Dew Point Pressure Wind Wind Speed Wind Gust Humidity Rainfall Rate (Hourly) solar Conditions
00:00 50.8 °F 48.8 °F 30.13 in East 6.9 mph 11.5 mph 93% 0.00 in 0.00 W/m2
00:01 50.8 °F 48.8 °F 30.13 in NE 4.6 mph 11.5 mph 93% 0.00 in 0.00 W/m2
00:05 50.8 °F 48.8 °F 30.14 in NNE 6.9 mph 11.5 mph 93% 0.00 in 0.00 W/m2
00:06 50.8 °F 48.8 °F 30.14 in NE 5.8 mph 11.5 mph 93% 0.00 in 0.00 W/m2
00:10 50.8 °F 48.8 °F 30.14 in NNE 3.5 mph 16.1 mph 93% 0.00 in 0.00 W/m2
00:11 50.8 °F 48.8 °F 30.14 in NNE 6.9 mph 16.1 mph 93% 0.00 in 0.00 W/m2
00:13 50.9 °F 49.0 °F 30.14 in East 3.4 mph 10.3 mph 93% 0.00 in 0.00 W/m2
00:15 50.8 °F 48.8 °F 30.14 in ENE 9.2 mph 11.5 mph 93% 0.00 in 0.00 W/m2
00:18 50.8 °F 48.8 °F 30.14 in ENE 9.2 mph 11.5 mph 93% 0.00 in 0.00 W/m2
00:20 50.8 °F 48.8 °F 30.13 in NE 6.9 mph 11.5 mph 93% 0.00 in 0.00 W/m2
00:23 50.8 °F 48.8 °F 30.13 in ENE 8.1 mph 10.3 mph 93% 0.00 in 0.00 W/m2
00:25 50.8 °F 48.8 °F 30.14 in NE 4.6 mph 10.4 mph 93% 0.00 in 0.00 W/m2
00:28 50.8 °F 48.8 °F 30.14 in NNE 8.1 mph 11.5 mph 93% 0.00 in 0.00 W/m2
00:30 50.8 °F 48.8 °F 30.14 in NE 4.6 mph 11.5 mph 93% 0.00 in 0.00 W/m2
00:33 50.8 °F 48.8 °F 30.14 in Calm   10.3 mph 93% 0.00 in 0.00 W/m2
00:35 50.8 °F 48.8 °F 30.14 in ENE 9.2 mph 10.4 mph 93% 0.00 in 0.00 W/m2
00:38 50.8 °F 48.8 °F 30.14 in NE 3.4 mph 10.3 mph 93% 0.00 in 0.00 W/m2
00:40 50.8 °F 48.8 °F 30.13 in ENE 10.4 mph 10.4 mph 93% 0.00 in 0.00 W/m2
00:43 50.8 °F 48.8 °F 30.13 in ENE 1.1 mph 11.5 mph 93% 0.00 in 0.00 W/m2
00:45 50.8 °F 48.8 °F 30.14 in NNE 3.5 mph 11.5 mph 93% 0.00 in 0.00 W/m2
00:48 50.8 °F 48.8 °F 30.14 in NE 4.6 mph 6.9 mph 93% 0.00 in 0.00 W/m2
00:50 50.9 °F 49.0 °F 30.13 in ENE 9.2 mph 11.5 mph 93% 0.00 in 0.00 W/m2
00:53 50.9 °F 49.0 °F 30.14 in ENE 8.1 mph 10.3 mph 93% 0.00 in 0.00 W/m2
00:55 50.9 °F 49.0 °F 30.14 in ENE 5.8 mph 10.4 mph 93% 0.00 in 0.00 W/m2
00:58 50.8 °F 48.8 °F 30.14 in ENE 1.1 mph 9.2 mph 93% 0.00 in 0.00 W/m2
01:00 50.8 °F 48.8 °F 30.14 in ENE 5.8 mph 9.2 mph 93% 0.00 in 0.00 W/m2
01:03 50.9 °F 49.0 °F 30.14 in NE 1.1 mph 6.9 mph 93% 0.00 in 0.00 W/m2
01:05 50.9 °F 49.0 °F 30.14 in ENE 1.1 mph 6.9 mph 93% 0.00 in 0.00 W/m2
01:08 50.9 °F 49.0 °F 30.14 in Calm   5.8 mph 93% 0.00 in 0.00 W/m2
01:10 50.9 °F 49.0 °F 30.14 in ENE 5.8 mph 6.9 mph 93% 0.00 in 0.00 W/m2
01:13 50.9 °F 49.0 °F 30.14 in NE 2.3 mph 9.2 mph 93% 0.00 in 0.00 W/m2
01:15 50.9 °F 49.0 °F 30.14 in NE 3.5 mph 9.2 mph 93% 0.00 in 0.00 W/m2
01:18 50.9 °F 49.0 °F 30.14 in ENE 10.3 mph 10.3 mph 93% 0.00 in 0.00 W/m2
01:20 50.9 °F 49.0 °F 30.14 in NE 3.5 mph 10.4 mph 93% 0.00 in 0.00 W/m2
01:24 50.9 °F 49.0 °F 30.15 in Calm   8.1 mph 93% 0.00 in 0.00 W/m2
01:25 50.9 °F 49.0 °F 30.15 in ENE 2.3 mph 9.2 mph 93% 0.00 in 0.00 W/m2
01:29 50.9 °F 49.0 °F 30.15 in ENE 4.6 mph 4.6 mph 93% 0.00 in 0.00 W/m2
01:30 50.9 °F 49.0 °F 30.15 in Calm   4.6 mph 93% 0.00 in 0.00 W/m2
01:34 50.9 °F 49.0 °F 30.15 in ENE 3.4 mph 3.4 mph 93% 0.00 in 0.00 W/m2
01:35 50.9 °F 49.0 °F 30.15 in ENE 2.3 mph 5.8 mph 93% 0.00 in 0.00 W/m2
01:39 50.9 °F 49.0 °F 30.15 in NE 3.4 mph 8.1 mph 93% 0.00 in 0.00 W/m2
01:40 50.9 °F 49.0 °F 30.15 in ENE 1.1 mph 8.1 mph 93% 0.00 in 0.00 W/m2
01:44 50.9 °F 49.0 °F 30.14 in NE 4.6 mph 5.8 mph 93% 0.00 in 0.00 W/m2
01:45 50.9 °F 49.0 °F 30.14 in Calm   5.8 mph 93% 0.00 in 0.00 W/m2
01:49 50.9 °F 49.0 °F 30.14 in Calm   4.6 mph 93% 0.00 in 0.00 W/m2
01:50 50.9 °F 49.0 °F 30.14 in ENE 1.1 mph 5.8 mph 93% 0.00 in 0.00 W/m2
01:54 50.9 °F 49.0 °F 30.14 in ENE 2.3 mph 4.6 mph 93% 0.00 in 0.00 W/m2
01:55 50.8 °F 48.8 °F 30.14 in ENE 2.3 mph 4.6 mph 93% 0.00 in 0.00 W/m2
01:59 50.8 °F 48.8 °F 30.14 in ENE 2.3 mph 2.3 mph 93% 0.00 in 0.00 W/m2
02:00 50.8 °F 48.8 °F 30.14 in Calm   3.5 mph 93% 0.00 in 0.00 W/m2
02:04 50.8 °F 48.8 °F 30.14 in ENE 2.3 mph 4.6 mph 93% 0.00 in 0.00 W/m2
02:05 50.8 °F 48.8 °F 30.13 in NE 1.1 mph 5.8 mph 93% 0.00 in 0.00 W/m2
02:09 50.8 °F 48.8 °F 30.13 in ENE 4.6 mph 5.8 mph 93% 0.00 in 0.00 W/m2
02:10 50.8 °F 48.8 °F 30.13 in NE 4.6 mph 5.8 mph 93% 0.00 in 0.00 W/m2
02:14 50.8 °F 48.8 °F 30.13 in Calm   5.8 mph 93% 0.00 in 0.00 W/m2
02:15 50.8 °F 48.8 °F 30.13 in Calm   5.8 mph 93% 0.00 in 0.00 W/m2
02:19 50.8 °F 48.8 °F 30.13 in NE 1.1 mph 4.6 mph 93% 0.00 in 0.00 W/m2
02:20 50.8 °F 48.8 °F 30.13 in NE 4.6 mph 9.2 mph 93% 0.00 in 0.00 W/m2
02:24 50.8 °F 48.8 °F 30.13 in NE 2.3 mph 8.1 mph 93% 0.00 in 0.00 W/m2
02:25 50.8 °F 48.8 °F 30.13 in NNE 4.6 mph 8.1 mph 93% 0.00 in 0.00 W/m2
02:29 50.8 °F 48.8 °F 30.13 in ENE 3.4 mph 5.8 mph 93% 0.00 in 0.00 W/m2
02:30 50.8 °F 48.8 °F 30.13 in ENE 3.5 mph 6.9 mph 93% 0.00 in 0.00 W/m2
02:34 50.7 °F 48.8 °F 30.13 in NE 5.8 mph 9.2 mph 93% 0.00 in 0.00 W/m2
02:35 50.7 °F 48.8 °F 30.12 in ENE 4.6 mph 9.2 mph 93% 0.00 in 0.00 W/m2
02:39 50.6 °F 48.7 °F 30.10 in NE 3.4 mph 11.5 mph 93% 0.00 in 0.00 W/m2
02:40 50.6 °F 48.9 °F 30.10 in NE 12.6 mph 12.6 mph 94% 0.00 in 0.00 W/m2
02:44 50.5 °F 48.8 °F 30.08 in North 8.1 mph 13.8 mph 94% 0.00 in 0.00 W/m2
02:45 50.5 °F 48.8 °F 30.08 in NE 4.6 mph 13.8 mph 94% 0.00 in 0.00 W/m2
02:49 50.5 °F 48.8 °F 30.06 in NNE 10.3 mph 13.8 mph 94% 0.00 in 0.00 W/m2
02:50 50.4 °F 48.7 °F 30.06 in NE 4.6 mph 13.8 mph 94% 0.00 in 0.00 W/m2
02:54 50.3 °F 48.6 °F 30.05 in NE 6.9 mph 14.9 mph 94% 0.00 in 0.00 W/m2
02:55 50.3 °F 48.6 °F 30.05 in NE 9.2 mph 18.4 mph 94% 0.00 in 0.00 W/m2
02:59 50.2 °F 48.5 °F 30.05 in NNE 16.1 mph 16.1 mph 94% 0.00 in 0.00 W/m2
03:06 50.2 °F 48.5 °F 30.06 in NNE 10.3 mph 12.6 mph 94% 0.00 in 0.00 W/m2
03:11 50.3 °F 48.4 °F 30.04 in ENE 12.6 mph 12.6 mph 93% 0.00 in 0.00 W/m2
03:16 50.3 °F 48.4 °F 30.04 in East 9.2 mph 10.3 mph 93% 0.00 in 0.00 W/m2
03:21 50.3 °F 48.4 °F 30.05 in NE 12.6 mph 17.2 mph 93% 0.00 in 0.00 W/m2
03:26 50.3 °F 48.1 °F 30.06 in East 16.1 mph 16.1 mph 92% 0.00 in 0.00 W/m2
03:31 50.4 °F 48.2 °F 30.07 in ENE 2.3 mph 3.4 mph 92% 0.00 in 0.00 W/m2
03:36 50.4 °F 48.2 °F 30.08 in NE 2.3 mph 4.6 mph 92% 0.00 in 0.00 W/m2
03:41 50.5 °F 48.3 °F 30.09 in NE 1.1 mph 8.1 mph 92% 0.00 in 0.00 W/m2
03:46 50.5 °F 48.3 °F 30.10 in Calm   2.3 mph 92% 0.00 in 0.00 W/m2
03:51 50.6 °F 48.4 °F 30.10 in ENE 5.8 mph 11.5 mph 92% 0.00 in 0.00 W/m2
03:57 50.6 °F 48.4 °F 30.09 in East 5.8 mph 6.9 mph 92% 0.00 in 0.00 W/m2
04:02 50.6 °F 48.4 °F 30.09 in NE 5.8 mph 5.8 mph 92% 0.00 in 0.00 W/m2
04:07 50.6 °F 48.1 °F 30.09 in NE 5.8 mph 5.8 mph 91% 0.00 in 0.00 W/m2
04:12 50.6 °F 48.4 °F 30.08 in ENE 9.2 mph 9.2 mph 92% 0.00 in 0.00 W/m2
04:17 50.6 °F 48.4 °F 30.07 in NE 2.3 mph 10.3 mph 92% 0.00 in 0.00 W/m2
04:22 50.6 °F 48.4 °F 30.07 in NE 4.6 mph 6.9 mph 92% 0.00 in 0.00 W/m2
04:27 50.6 °F 48.4 °F 30.06 in NNE 4.6 mph 12.6 mph 92% 0.00 in 0.00 W/m2
04:32 50.6 °F 48.4 °F 30.06 in East 3.4 mph 14.9 mph 92% 0.00 in 0.00 W/m2
04:37 50.7 °F 48.5 °F 30.06 in East 5.8 mph 16.1 mph 92% 0.00 in 0.00 W/m2
04:42 50.7 °F 48.5 °F 30.06 in NE 5.8 mph 9.2 mph 92% 0.00 in 0.00 W/m2
04:47 50.7 °F 48.5 °F 30.07 in ENE 5.8 mph 11.5 mph 92% 0.00 in 0.00 W/m2
04:52 50.7 °F 48.5 °F 30.07 in ENE 5.8 mph 10.3 mph 92% 0.00 in 0.00 W/m2
04:57 50.8 °F 48.6 °F 30.08 in ENE 12.6 mph 12.6 mph 92% 0.00 in 0.00 W/m2
05:02 50.8 °F 48.6 °F 30.08 in East 12.6 mph 12.6 mph 92% 0.00 in 0.00 W/m2
05:07 50.8 °F 48.6 °F 30.08 in ESE 5.8 mph 10.3 mph 92% 0.00 in 0.00 W/m2
05:12 50.9 °F 48.7 °F 30.08 in NE 4.6 mph 11.5 mph 92% 0.00 in 0.00 W/m2
05:17 50.9 °F 48.7 °F 30.08 in East 14.9 mph 14.9 mph 92% 0.00 in 0.00 W/m2
05:22 50.9 °F 49.0 °F 30.08 in East 5.8 mph 13.8 mph 93% 0.00 in 0.00 W/m2
05:27 50.9 °F 49.0 °F 30.08 in ENE 9.2 mph 10.3 mph 93% 0.00 in 0.00 W/m2
05:33 50.9 °F 49.0 °F 30.07 in ESE 11.5 mph 11.5 mph 93% 0.00 in 0.00 W/m2
05:38 50.9 °F 49.0 °F 30.07 in ENE 11.5 mph 11.5 mph 93% 0.00 in 0.00 W/m2
05:43 50.9 °F 49.0 °F 30.07 in ESE 3.4 mph 11.5 mph 93% 0.00 in 5.00 W/m2
05:48 50.9 °F 49.0 °F 30.07 in ESE 2.3 mph 11.5 mph 93% 0.00 in 7.00 W/m2
05:53 50.9 °F 49.0 °F 30.07 in East 5.8 mph 13.8 mph 93% 0.00 in 9.00 W/m2
05:58 51.0 °F 49.0 °F 30.07 in ENE 5.8 mph 12.6 mph 93% 0.00 in 11.00 W/m2
06:03 51.0 °F 49.0 °F 30.07 in ENE 1.1 mph 11.5 mph 93% 0.00 in 16.00 W/m2
06:08 51.0 °F 49.3 °F 30.07 in East 5.8 mph 8.1 mph 94% 0.00 in 16.00 W/m2
06:13 51.1 °F 49.4 °F 30.06 in NE 8.1 mph 11.5 mph 94% 0.00 in 14.00 W/m2
06:18 51.2 °F 49.5 °F 30.06 in East 3.4 mph 11.5 mph 94% 0.00 in 16.00 W/m2
06:23 51.2 °F 49.5 °F 30.06 in East 9.2 mph 9.2 mph 94% 0.00 in 21.00 W/m2
06:28 51.3 °F 49.6 °F 30.06 in ENE 3.4 mph 12.6 mph 94% 0.00 in 26.00 W/m2
06:33 51.3 °F 49.6 °F 30.06 in ENE 2.3 mph 10.3 mph 94% 0.00 in 37.00 W/m2
06:38 51.4 °F 49.7 °F 30.06 in East 6.9 mph 12.6 mph 94% 0.00 in 42.00 W/m2
06:43 51.4 °F 49.7 °F 30.05 in ENE 10.3 mph 14.9 mph 94% 0.00 in 42.00 W/m2
06:48 51.4 °F 49.5 °F 30.06 in NE 9.2 mph 17.2 mph 93% 0.00 in 49.00 W/m2
06:53 51.5 °F 49.5 °F 30.06 in East 9.2 mph 14.9 mph 93% 0.00 in 47.00 W/m2
06:58 51.6 °F 49.7 °F 30.07 in East 16.1 mph 17.2 mph 93% 0.00 in 40.00 W/m2
07:03 51.7 °F 49.8 °F 30.06 in ESE 8.1 mph 13.8 mph 93% 0.00 in 40.00 W/m2
07:08 51.7 °F 49.8 °F 30.06 in East 5.8 mph 13.8 mph 93% 0.00 in 44.00 W/m2
07:13 51.7 °F 49.8 °F 30.06 in ESE 9.2 mph 10.3 mph 93% 0.00 in 53.00 W/m2
07:18 51.8 °F 49.8 °F 30.06 in East 6.9 mph 13.8 mph 93% 0.00 in 72.00 W/m2
07:24 52.0 °F 50.0 °F 30.06 in NE 18.4 mph 18.4 mph 93% 0.00 in 76.00 W/m2
07:29 52.0 °F 50.0 °F 30.06 in ENE 12.6 mph 14.9 mph 93% 0.00 in 69.00 W/m2
07:34 52.0 °F 49.8 °F 30.06 in East 6.9 mph 13.8 mph 92% 0.00 in 72.00 W/m2
07:39 52.1 °F 49.8 °F 30.06 in ENE 12.6 mph 17.2 mph 92% 0.00 in 95.00 W/m2
07:44 52.3 °F 50.3 °F 30.05 in ENE 2.3 mph 14.9 mph 93% 0.00 in 98.00 W/m2
07:49 52.4 °F 50.4 °F 30.06 in NE 11.5 mph 12.6 mph 93% 0.00 in 69.00 W/m2
07:54 52.3 °F 50.3 °F 30.05 in East 10.3 mph 10.3 mph 93% 0.00 in 70.00 W/m2
07:59 52.3 °F 50.3 °F 30.05 in ENE 8.1 mph 16.1 mph 93% 0.00 in 62.00 W/m2
08:04 52.3 °F 50.0 °F 30.05 in ENE 3.4 mph 18.4 mph 92% 0.00 in 58.00 W/m2
08:09 52.3 °F 50.3 °F 30.04 in ENE 5.8 mph 14.9 mph 93% 0.00 in 70.00 W/m2
08:14 52.4 °F 50.4 °F 30.04 in NE 12.6 mph 14.9 mph 93% 0.00 in 83.00 W/m2
08:19 52.4 °F 50.4 °F 30.05 in East 5.8 mph 11.5 mph 93% 0.00 in 79.00 W/m2
08:24 52.5 °F 50.5 °F 30.05 in East 8.1 mph 16.1 mph 93% 0.00 in 76.00 W/m2
08:29 52.6 °F 50.6 °F 30.04 in ENE 8.1 mph 13.8 mph 93% 0.00 in 81.00 W/m2
08:34 52.6 °F 50.3 °F 30.03 in East 3.4 mph 14.9 mph 92% 0.00 in 72.00 W/m2
08:39 52.7 °F 50.5 °F 30.04 in ENE 9.2 mph 17.2 mph 92% 0.00 in 77.00 W/m2
08:44 52.7 °F 50.5 °F 30.04 in ENE 8.1 mph 11.5 mph 92% 0.00 in 72.00 W/m2
08:49 52.8 °F 50.5 °F 30.04 in East 5.8 mph 14.9 mph 92% 0.00 in 63.00 W/m2
08:54 52.8 °F 50.5 °F 30.05 in East 8.1 mph 14.9 mph 92% 0.00 in 51.00 W/m2
08:59 52.8 °F 50.5 °F 30.05 in East 11.5 mph 16.1 mph 92% 0.00 in 40.00 W/m2
09:04 52.8 °F 50.5 °F 30.04 in ESE 9.2 mph 14.9 mph 92% 0.00 in 28.00 W/m2
09:09 52.7 °F 50.5 °F 30.04 in ENE 5.8 mph 17.2 mph 92% 0.05 in 35.00 W/m2
09:14 52.5 °F 50.5 °F 30.05 in NNE 6.9 mph 17.2 mph 93% 0.05 in 39.00 W/m2
09:19 52.4 °F 50.7 °F 30.05 in East 2.3 mph 14.9 mph 94% 0.05 in 37.00 W/m2
09:24 52.4 °F 50.7 °F 30.04 in East 12.6 mph 14.9 mph 94% 0.06 in 39.00 W/m2
09:29 52.4 °F 50.7 °F 30.04 in SE 8.1 mph 17.2 mph 94% 0.06 in 42.00 W/m2
09:34 52.4 °F 50.7 °F 30.05 in ESE 1.1 mph 11.5 mph 94% 0.06 in 18.00 W/m2
09:39 52.4 °F 51.0 °F 30.05 in ESE 10.3 mph 11.5 mph 95% 0.07 in 21.00 W/m2
09:44 52.3 °F 50.6 °F 30.05 in East 6.9 mph 11.5 mph 94% 0.11 in 11.00 W/m2
09:49 52.3 °F 50.9 °F 30.07 in East 1.1 mph 10.3 mph 95% 0.11 in 9.00 W/m2
09:54 52.4 °F 51.0 °F 30.07 in ESE 3.4 mph 8.1 mph 95% 0.12 in 14.00 W/m2
09:59 52.5 °F 51.1 °F 30.06 in East 5.8 mph 12.6 mph 95% 0.12 in 21.00 W/m2
10:05 52.5 °F 51.1 °F 30.07 in ESE 3.4 mph 12.6 mph 95% 0.13 in 19.00 W/m2
10:10 52.5 °F 51.1 °F 30.07 in SE 3.4 mph 14.9 mph 95% 0.14 in 21.00 W/m2
10:15 52.5 °F 51.1 °F 30.08 in SE 8.1 mph 12.6 mph 95% 0.11 in 11.00 W/m2
10:20 52.5 °F 51.1 °F 30.07 in ESE 2.3 mph 13.8 mph 95% 0.16 in 32.00 W/m2
10:25 52.6 °F 51.2 °F 30.06 in East 5.8 mph 12.6 mph 95% 0.21 in 39.00 W/m2
10:30 52.7 °F 51.3 °F 30.05 in ESE 5.8 mph 13.8 mph 95% 0.22 in 51.00 W/m2
10:35 52.7 °F 51.6 °F 30.05 in ESE 9.2 mph 11.5 mph 96% 0.23 in 40.00 W/m2
10:40 52.7 °F 51.6 °F 30.03 in ESE 1.1 mph 10.3 mph 96% 0.24 in 51.00 W/m2
10:45 52.7 °F 51.6 °F 30.01 in East 5.8 mph 16.1 mph 96% 0.21 in 74.00 W/m2
10:50 52.8 °F 51.7 °F 30.02 in NE 2.3 mph 13.8 mph 96% 0.21 in 134.00 W/m2
10:55 53.0 °F 51.9 °F 30.01 in ESE 11.5 mph 13.8 mph 96% 0.22 in 158.00 W/m2
11:01 53.1 °F 52.0 °F 30.00 in ENE 13.8 mph 13.8 mph 96% 0.21 in 162.00 W/m2
11:06 53.3 °F 52.2 °F 29.99 in East 10.3 mph 17.2 mph 96% 0.21 in 185.00 W/m2
11:11 53.5 °F 52.4 °F 29.99 in ESE 5.8 mph 20.7 mph 96% 0.19 in 207.00 W/m2
11:16 53.6 °F 52.5 °F 29.98 in NE 13.8 mph 16.1 mph 96% 0.18 in 243.00 W/m2
11:21 53.8 °F 52.7 °F 29.98 in ENE 10.3 mph 13.8 mph 96% 0.15 in 241.00 W/m2
11:26 54.0 °F 52.9 °F 29.97 in ENE 5.8 mph 18.4 mph 96% 0.11 in 283.00 W/m2
11:31 54.4 °F 53.3 °F 29.96 in ESE 5.8 mph 18.4 mph 96% 0.07 in 264.00 W/m2
11:36 54.4 °F 53.3 °F 29.95 in NE 13.8 mph 18.4 mph 96% 0.05 in 257.00 W/m2
11:41 54.5 °F 53.4 °F 29.96 in ENE 4.6 mph 17.2 mph 96% 0.04 in 287.00 W/m2
11:46 54.9 °F 53.8 °F 29.96 in NE 6.9 mph 25.3 mph 96% 0.03 in 283.00 W/m2
11:51 55.1 °F 54.0 °F 29.96 in NE 12.6 mph 21.9 mph 96% 0.01 in 246.00 W/m2
11:56 55.2 °F 53.8 °F 29.96 in East 6.9 mph 18.4 mph 95% 0.01 in 243.00 W/m2
12:01 55.7 °F 54.6 °F 29.96 in ESE 11.5 mph 21.9 mph 96% 0.00 in 346.00 W/m2
12:06 55.9 °F 54.5 °F 29.95 in ENE 4.6 mph 21.9 mph 95% 0.00 in 376.00 W/m2
12:11 56.0 °F 54.6 °F 29.96 in East 17.2 mph 20.7 mph 95% 0.00 in 352.00 W/m2
12:16 56.4 °F 55.0 °F 29.95 in NE 10.3 mph 20.7 mph 95% 0.00 in 367.00 W/m2
12:21 56.6 °F 55.2 °F 29.95 in East 9.2 mph 18.4 mph 95% 0.00 in 355.00 W/m2
12:26 57.0 °F 55.6 °F 29.95 in East 14.9 mph 19.5 mph 95% 0.00 in 378.00 W/m2
12:31 57.6 °F 56.2 °F 29.94 in SE 16.1 mph 24.1 mph 95% 0.00 in 457.00 W/m2
12:36 58.1 °F 56.4 °F 29.94 in ENE 16.1 mph 23.0 mph 94% 0.00 in 450.00 W/m2
12:41 58.8 °F 57.1 °F 29.93 in ESE 10.3 mph 10.3 mph 94% 0.00 in 510.00 W/m2
12:46 59.0 °F 57.0 °F 29.93 in ENE 13.8 mph 13.8 mph 93% 0.00 in 427.00 W/m2
12:51 59.3 °F 57.0 °F 29.93 in ENE 12.6 mph 12.6 mph 92% 0.00 in 513.00 W/m2
12:56 60.2 °F 57.9 °F 29.92 in ESE 10.3 mph 14.9 mph 92% 0.00 in 527.00 W/m2
13:01 60.7 °F 58.1 °F 29.93 in East 8.1 mph 9.2 mph 91% 0.00 in 473.00 W/m2
13:06 60.7 °F 58.1 °F 29.94 in ESE 3.4 mph 9.2 mph 91% 0.00 in 315.00 W/m2
13:11 60.8 °F 58.2 °F 29.94 in ENE 12.6 mph 12.6 mph 91% 0.00 in 353.00 W/m2
13:16 61.1 °F 58.5 °F 29.94 in ENE 4.6 mph 5.8 mph 91% 0.00 in 427.00 W/m2
13:21 61.9 °F 59.5 °F 29.94 in ESE 9.2 mph 16.1 mph 92% 0.00 in 679.00 W/m2
13:26 62.6 °F 59.6 °F 29.94 in ESE 3.4 mph 13.8 mph 90% 0.00 in 622.00 W/m2
13:31 62.7 °F 59.4 °F 29.94 in East 10.3 mph 10.3 mph 89% 0.00 in 371.00 W/m2
13:37 62.4 °F 59.1 °F 29.94 in ESE 3.4 mph 8.1 mph 89% 0.00 in 272.00 W/m2
13:42 62.5 °F 59.5 °F 29.94 in ESE 8.1 mph 13.8 mph 90% 0.00 in 253.00 W/m2
13:47 62.3 °F 59.3 °F 29.94 in ENE 3.4 mph 6.9 mph 90% 0.00 in 255.00 W/m2
13:52 62.4 °F 59.4 °F 29.94 in ENE 9.2 mph 13.8 mph 90% 0.00 in 237.00 W/m2
13:57 62.7 °F 60.0 °F 29.94 in East 11.5 mph 16.1 mph 91% 0.00 in 250.00 W/m2
14:02 62.7 °F 59.7 °F 29.94 in SE 5.8 mph 10.3 mph 90% 0.00 in 167.00 W/m2
14:07 62.8 °F 60.1 °F 29.94 in ESE 9.2 mph 9.2 mph 91% 0.00 in 221.00 W/m2
14:12 63.1 °F 60.1 °F 29.94 in SE 5.8 mph 11.5 mph 90% 0.00 in 199.00 W/m2
14:17 63.4 °F 60.4 °F 29.94 in ESE 10.3 mph 10.3 mph 90% 0.00 in 309.00 W/m2
14:22 64.2 °F 61.5 °F 29.94 in ESE 8.1 mph 11.5 mph 91% 0.00 in 388.00 W/m2
14:27 65.0 °F 62.0 °F 29.93 in SSW 8.1 mph 10.3 mph 90% 0.00 in 397.00 W/m2
14:32 64.9 °F 61.3 °F 29.93 in ESE 9.2 mph 9.2 mph 88% 0.00 in 374.00 W/m2
14:37 65.6 °F 62.0 °F 29.93 in ESE 4.6 mph 6.9 mph 88% 0.00 in 366.00 W/m2
14:42 65.7 °F 62.0 °F 29.93 in SE 2.3 mph 8.1 mph 88% 0.00 in 285.00 W/m2
14:47 65.5 °F 61.9 °F 29.93 in SE 4.6 mph 6.9 mph 88% 0.00 in 380.00 W/m2
14:52 65.4 °F 61.8 °F 29.93 in Calm   2.3 mph 88% 0.00 in 227.00 W/m2
14:57 65.0 °F 61.4 °F 29.93 in ESE 4.6 mph 5.8 mph 88% 0.00 in 132.00 W/m2
15:02 64.6 °F 61.3 °F 29.93 in Calm   5.8 mph 89% 0.00 in 118.00 W/m2
15:04 64.5 °F 61.2 °F 29.93 in Calm   5.8 mph 89% 0.00 in 162.00 W/m2
15:09 64.5 °F 61.2 °F 29.93 in East 3.4 mph 6.9 mph 89% 0.00 in 79.00 W/m2
15:14 64.5 °F 61.5 °F 29.93 in East 3.4 mph 5.8 mph 90% 0.00 in 83.00 W/m2
15:19 64.7 °F 61.7 °F 29.93 in Calm   1.1 mph 90% 0.00 in 70.00 W/m2
15:24 64.8 °F 62.1 °F 29.94 in Calm   3.4 mph 91% 0.00 in 72.00 W/m2
15:30 65.1 °F 62.4 °F 29.93 in ESE 1.1 mph 6.9 mph 91% 0.00 in 139.00 W/m2
15:35 65.9 °F 63.2 °F 29.93 in ESE 5.8 mph 9.2 mph 91% 0.00 in 262.00 W/m2
15:40 66.6 °F 63.6 °F 29.93 in SE 2.3 mph 5.8 mph 90% 0.00 in 311.00 W/m2
15:45 67.1 °F 63.4 °F 29.92 in SE 3.4 mph 8.1 mph 88% 0.00 in 318.00 W/m2
15:50 67.7 °F 64.0 °F 29.92 in SE 2.3 mph 10.3 mph 88% 0.00 in 360.00 W/m2
15:55 67.9 °F 64.5 °F 29.92 in East 9.2 mph 10.3 mph 89% 0.00 in 318.00 W/m2
16:00 68.2 °F 64.5 °F 29.92 in East 8.1 mph 9.2 mph 88% 0.00 in 352.00 W/m2
16:05 68.5 °F 64.5 °F 29.92 in East 8.1 mph 10.3 mph 87% 0.00 in 380.00 W/m2
16:10 68.8 °F 64.8 °F 29.92 in Calm   9.2 mph 87% 0.00 in 512.00 W/m2
16:15 69.4 °F 65.4 °F 29.91 in ESE 3.4 mph 10.3 mph 87% 0.00 in 397.00 W/m2
16:20 69.3 °F 64.9 °F 29.91 in ESE 9.2 mph 12.6 mph 86% 0.00 in 265.00 W/m2
16:25 69.0 °F 65.0 °F 29.91 in ESE 5.8 mph 8.1 mph 87% 0.00 in 225.00 W/m2
16:30 69.3 °F 65.3 °F 29.91 in ESE 5.8 mph 11.5 mph 87% 0.00 in 265.00 W/m2
16:35 69.6 °F 65.9 °F 29.92 in ESE 5.8 mph 9.2 mph 88% 0.00 in 258.00 W/m2
16:40 69.9 °F 65.5 °F 29.92 in East 10.3 mph 12.6 mph 86% 0.00 in 353.00 W/m2
16:45 70.7 °F 66.7 °F 29.91 in SE 6.9 mph 12.6 mph 87% 0.00 in 555.00 W/m2
16:50 71.2 °F 66.8 °F 29.91 in East 1.1 mph 12.6 mph 86% 0.00 in 454.00 W/m2
16:55 71.4 °F 66.7 °F 29.91 in ESE 4.6 mph 14.9 mph 85% 0.00 in 508.00 W/m2
17:00 71.8 °F 67.1 °F 29.90 in ESE 13.8 mph 13.8 mph 85% 0.00 in 592.00 W/m2
17:05 71.9 °F 67.2 °F 29.90 in ENE 3.4 mph 14.9 mph 85% 0.00 in 515.00 W/m2
17:10 71.2 °F 66.8 °F 29.90 in ESE 5.8 mph 12.6 mph 86% 0.00 in 288.00 W/m2
17:15 71.1 °F 66.7 °F 29.89 in ESE 3.4 mph 9.2 mph 86% 0.00 in 473.00 W/m2
17:20 71.3 °F 66.6 °F 29.89 in ESE 9.2 mph 10.3 mph 85% 0.00 in 350.00 W/m2
17:25 71.1 °F 66.4 °F 29.89 in East 6.9 mph 14.9 mph 85% 0.00 in 401.00 W/m2
17:30 71.4 °F 66.7 °F 29.89 in ESE 4.6 mph 10.3 mph 85% 0.00 in 438.00 W/m2
17:35 71.4 °F 66.7 °F 29.89 in ENE 4.6 mph 11.5 mph 85% 0.00 in 427.00 W/m2
17:40 71.5 °F 66.8 °F 29.89 in ENE 3.4 mph 12.6 mph 85% 0.00 in 415.00 W/m2
17:45 71.1 °F 66.0 °F 29.89 in East 3.4 mph 13.8 mph 84% 0.00 in 320.00 W/m2
17:50 70.8 °F 66.1 °F 29.88 in SE 10.3 mph 13.8 mph 85% 0.00 in 290.00 W/m2
17:55 70.5 °F 66.1 °F 29.88 in NNE 2.3 mph 17.2 mph 86% 0.00 in 279.00 W/m2
18:01 70.1 °F 65.7 °F 29.88 in East 5.8 mph 16.1 mph 86% 0.00 in 292.00 W/m2
18:06 70.0 °F 66.0 °F 29.88 in East 10.3 mph 13.8 mph 87% 0.00 in 162.00 W/m2
18:11 69.7 °F 66.0 °F 29.88 in ENE 5.8 mph 11.5 mph 88% 0.00 in 102.00 W/m2
18:16 69.4 °F 65.7 °F 29.88 in East 11.5 mph 12.6 mph 88% 0.00 in 121.00 W/m2
18:21 69.2 °F 65.5 °F 29.88 in East 3.4 mph 13.8 mph 88% 0.00 in 185.00 W/m2
18:23 69.2 °F 65.5 °F 29.88 in SE 11.5 mph 11.5 mph 88% 0.00 in 167.00 W/m2
18:28 69.3 °F 65.6 °F 29.88 in ENE 4.6 mph 14.9 mph 88% 0.00 in 214.00 W/m2
18:33 69.4 °F 65.7 °F 29.89 in SE 6.9 mph 12.6 mph 88% 0.00 in 123.00 W/m2
18:38 69.0 °F 65.3 °F 29.88 in SE 11.5 mph 13.8 mph 88% 0.00 in 135.00 W/m2
18:43 68.6 °F 64.9 °F 29.88 in ESE 11.5 mph 14.9 mph 88% 0.00 in 97.00 W/m2
18:48 68.2 °F 64.8 °F 29.89 in ESE 2.3 mph 11.5 mph 89% 0.00 in 84.00 W/m2
18:53 68.0 °F 64.6 °F 29.89 in ENE 4.6 mph 11.5 mph 89% 0.00 in 72.00 W/m2
18:58 67.6 °F 64.6 °F 29.89 in East 10.3 mph 11.5 mph 90% 0.00 in 56.00 W/m2
19:03 67.4 °F 64.4 °F 29.89 in ESE 8.1 mph 8.1 mph 90% 0.00 in 53.00 W/m2
19:08 67.1 °F 64.4 °F 29.89 in East 3.4 mph 9.2 mph 91% 0.00 in 56.00 W/m2
19:13 66.9 °F 64.2 °F 29.90 in SE 14.9 mph 14.9 mph 91% 0.00 in 51.00 W/m2
19:19 66.7 °F 64.0 °F 29.89 in East 10.3 mph 11.5 mph 91% 0.00 in 44.00 W/m2
19:24 66.4 °F 63.7 °F 29.89 in ESE 11.5 mph 11.5 mph 91% 0.00 in 37.00 W/m2
19:29 66.2 °F 63.8 °F 29.89 in East 3.4 mph 9.2 mph 92% 0.00 in 32.00 W/m2
19:34 65.9 °F 63.5 °F 29.89 in East 3.4 mph 12.6 mph 92% 0.00 in 28.00 W/m2
19:39 65.7 °F 63.3 °F 29.89 in East 3.4 mph 9.2 mph 92% 0.00 in 26.00 W/m2
19:44 65.5 °F 63.1 °F 29.89 in ENE 2.3 mph 8.1 mph 92% 0.00 in 23.00 W/m2
19:49 65.3 °F 63.2 °F 29.90 in Calm   6.9 mph 93% 0.00 in 21.00 W/m2
19:54 65.2 °F 63.1 °F 29.90 in Calm   5.8 mph 93% 0.00 in 14.00 W/m2
19:59 65.0 °F 62.9 °F 29.90 in ESE 3.4 mph 9.2 mph 93% 0.00 in 11.00 W/m2
20:04 64.9 °F 62.8 °F 29.90 in Calm   6.9 mph 93% 0.00 in 5.00 W/m2
20:09 64.7 °F 62.6 °F 29.90 in ESE 4.6 mph 8.1 mph 93% 0.00 in 5.00 W/m2
20:14 64.6 °F 62.8 °F 29.90 in Calm   4.6 mph 94% 0.00 in 5.00 W/m2
20:19 64.4 °F 62.6 °F 29.90 in Calm   4.6 mph 94% 0.00 in 0.00 W/m2
20:24 64.3 °F 62.5 °F 29.91 in Calm   4.6 mph 94% 0.00 in 0.00 W/m2
20:29 64.2 °F 62.4 °F 29.91 in ENE 3.4 mph 4.6 mph 94% 0.00 in 0.00 W/m2
20:34 64.1 °F 62.3 °F 29.91 in Calm   4.6 mph 94% 0.00 in 0.00 W/m2
20:39 64.1 °F 62.3 °F 29.91 in ENE 2.3 mph 3.4 mph 94% 0.00 in 0.00 W/m2
20:44 64.0 °F 62.2 °F 29.90 in ENE 3.4 mph 4.6 mph 94% 0.00 in 0.00 W/m2
20:49 63.8 °F 62.0 °F 29.90 in Calm   4.6 mph 94% 0.00 in 0.00 W/m2
20:54 63.6 °F 61.8 °F 29.90 in ENE 2.3 mph 3.4 mph 94% 0.00 in 0.00 W/m2
20:59 63.5 °F 62.0 °F 29.90 in ENE 2.3 mph 3.4 mph 95% 0.00 in 0.00 W/m2
21:09 63.4 °F 62.0 °F 29.90 in East 5.8 mph 6.9 mph 95% 0.00 in 0.00 W/m2
21:14 63.4 °F 62.0 °F 29.90 in Calm   6.9 mph 95% 0.00 in 0.00 W/m2
21:19 63.4 °F 62.0 °F 29.90 in East 2.3 mph 9.2 mph 95% 0.00 in 0.00 W/m2
21:25 63.3 °F 61.8 °F 29.90 in East 2.3 mph 6.9 mph 95% 0.00 in 0.00 W/m2
21:30 63.3 °F 61.8 °F 29.90 in ESE 1.1 mph 4.6 mph 95% 0.00 in 0.00 W/m2
21:35 63.2 °F 61.8 °F 29.89 in Calm   4.6 mph 95% 0.00 in 0.00 W/m2
21:40 63.2 °F 61.8 °F 29.89 in Calm   9.2 mph 95% 0.00 in 0.00 W/m2
21:45 63.2 °F 61.8 °F 29.89 in Calm   3.4 mph 95% 0.00 in 0.00 W/m2
21:50 63.1 °F 61.7 °F 29.90 in Calm   6.9 mph 95% 0.00 in 0.00 W/m2
21:55 63.0 °F 61.5 °F 29.90 in East 1.1 mph 5.8 mph 95% 0.00 in 0.00 W/m2
22:00 62.9 °F 61.5 °F 29.90 in Calm   2.3 mph 95% 0.00 in 0.00 W/m2
22:05 62.6 °F 61.2 °F 29.90 in Calm   3.4 mph 95% 0.00 in 0.00 W/m2
22:10 62.6 °F 61.2 °F 29.90 in East 5.8 mph 6.9 mph 95% 0.00 in 0.00 W/m2
22:15 62.5 °F 61.3 °F 29.90 in East 1.1 mph 3.4 mph 96% 0.00 in 0.00 W/m2
22:20 62.4 °F 61.2 °F 29.90 in East 2.3 mph 3.4 mph 96% 0.00 in 0.00 W/m2
22:25 62.2 °F 60.8 °F 29.90 in East 2.3 mph 5.8 mph 95% 0.00 in 0.00 W/m2
22:30 62.2 °F 61.0 °F 29.90 in Calm   2.3 mph 96% 0.00 in 0.00 W/m2
22:35 62.4 °F 61.2 °F 29.90 in Calm   3.4 mph 96% 0.00 in 0.00 W/m2
22:40 62.3 °F 61.2 °F 29.90 in East 1.1 mph 2.3 mph 96% 0.00 in 0.00 W/m2
22:45 62.3 °F 61.2 °F 29.90 in Calm   3.4 mph 96% 0.00 in 0.00 W/m2
22:50 62.4 °F 61.2 °F 29.90 in East 1.1 mph 5.8 mph 96% 0.00 in 0.00 W/m2
22:55 62.4 °F 61.2 °F 29.90 in East 3.4 mph 6.9 mph 96% 0.00 in 0.00 W/m2
23:00 62.4 °F 61.2 °F 29.90 in East 2.3 mph 3.4 mph 96% 0.00 in 0.00 W/m2
23:05 62.3 °F 61.2 °F 29.90 in Calm   6.9 mph 96% 0.00 in 0.00 W/m2
23:10 62.3 °F 61.2 °F 29.89 in East 2.3 mph 4.6 mph 96% 0.00 in 0.00 W/m2
23:15 62.3 °F 61.2 °F 29.89 in Calm   2.3 mph 96% 0.00 in 0.00 W/m2
23:20 62.3 °F 61.2 °F 29.89 in Calm   4.6 mph 96% 0.00 in 0.00 W/m2
23:25 62.3 °F 61.2 °F 29.89 in ENE 1.1 mph 4.6 mph 96% 0.00 in 0.00 W/m2
23:30 62.2 °F 61.0 °F 29.90 in ENE 1.1 mph 3.4 mph 96% 0.00 in 0.00 W/m2
23:35 62.2 °F 61.0 °F 29.90 in Calm   1.1 mph 96% 0.00 in 0.00 W/m2
23:40 62.2 °F 61.0 °F 29.89 in Calm   3.4 mph 96% 0.00 in 0.00 W/m2
23:45 62.1 °F 61.0 °F 29.89 in Calm   4.6 mph 96% 0.00 in 0.00 W/m2
23:51 62.1 °F 61.0 °F 29.90 in ENE 1.1 mph 4.6 mph 96% 0.00 in 0.00 W/m2
23:56 62.1 °F 61.0 °F 29.90 in ESE 2.3 mph 5.8 mph 96% 0.00 in 0.00 W/m2
peotoneweather.com
Compliments of Weather Underground - 3.75 mb